Date,TemperatureHighF,TemperatureAvgF,TemperatureLowF,DewpointHighF,DewpointAvgF,DewpointLowF,HumidityHigh,HumidityAvg,HumidityLow,PressureMaxIn,PressureMinIn,WindSpeedMaxMPH,WindSpeedAvgMPH,GustSpeedMaxMPH,PrecipitationSumIn
2013-1-1,23,16,7,14,9,3,83,73,60,30.16,29.99,24,8,29,0.00
2013-1-2,21,17,13,17,13,9,88,83,73,30.21,29.99,15,7,21,0.00
2013-1-3,29,24,16,26,20,13,93,85,72,30.15,29.90,23,6,26,0.00
2013-1-4,32,30,29,26,24,23,86,79,69,30.06,29.78,28,13,36,0.00
2013-1-5,32,28,23,28,23,18,90,80,70,30.25,29.90,12,5,24,0.00
2013-1-6,31,25,13,29,21,9,95,85,70,30.29,29.84,16,7,19,0.00
2013-1-7,38,30,16,31,24,12,91,78,68,30.32,29.91,20,7,30,0.00
2013-1-8,40,36,34,33,31,29,91,83,66,30.17,29.94,19,7,22,0.00
2013-1-9,39,36,33,33,30,26,93,79,71,30.37,29.81,24,10,34,0.03
2013-1-10,39,35,27,34,29,24,90,81,69,30.57,30.25,17,6,22,0.00
2013-1-11,43,38,36,42,37,33,97,94,85,30.24,29.70,24,6,24,0.53
2013-1-12,53,42,35,46,39,31,97,88,68,29.97,29.67,18,6,28,0.00
2013-1-13,36,32,29,32,30,26,95,92,85,29.95,29.85,8,3,13,0.01
2013-1-14,29,24,21,27,17,13,92,75,59,30.37,29.91,16,7,22,0.01
2013-1-15,28,24,16,21,16,9,87,72,57,30.39,30.09,22,8,25,0.00
2013-1-16,31,28,18,27,22,11,89,78,68,30.08,29.59,30,12,40,0.00
2013-1-17,17,8,1,10,2,-4,83,76,59,30.32,29.99,23,8,29,0.00
2013-1-18,29,17,5,27,13,2,94,83,70,30.36,29.79,13,4,20,0.00
2013-1-19,35,27,22,34,25,20,97,93,90,29.88,29.36,21,5,34,0.16
2013-1-20,28,11,5,26,7,0,91,81,70,30.16,29.38,27,12,37,0.16
2013-1-21,10,7,3,6,2,-3,88,82,76,30.14,29.90,19,6,21,0.00
2013-1-22,2,-8,-16,-2,-14,-21,83,75,62,30.31,30.05,14,5,18,0.00
2013-1-23,8,1,-12,4,-3,-16,87,84,78,30.32,30.14,14,5,16,0.00
2013-1-24,5,-1,-6,-3,-7,-11,86,75,63,30.70,30.56,11,4,14,0.00
2013-1-25,20,11,-3,17,8,-6,91,87,82,30.56,30.09,13,4,19,0.00
2013-1-26,21,11,1,14,8,-2,90,85,69,30.49,30.13,8,2,11,0.01
2013-1-27,29,21,2,27,18,-1,93,86,78,30.51,30.21,15,3,21,0.00
2013-1-28,32,30,26,31,29,24,97,96,93,30.19,29.86,15,6,19,0.00
2013-1-29,46,33,24,45,32,23,98,96,95,30.05,29.49,14,6,26,0.19
2013-1-30,37,30,13,36,29,11,97,96,91,29.49,29.08,22,10,28,0.53
2013-1-31,12,7,4,10,3,-2,91,83,77,29.88,29.15,27,14,29,0.00